Retour au catalogue

FENGYUN 1C DEB

ActifSSO
NORAD 31339·DEBRIS·🇨🇳 China

Lancé May 10, 1999 depuis Taiyuan Satellite Launch Center

Loading…

Prochains Passages (prochaines 24 heures)

TLE

FraisSource: Space-Track

Époque: Sep 14, 2026, 07:11 UTC

1 31339U 99025BQT 26257.29964224  .00000887  00000-0  48713-3 0  9993
2 31339  98.7034 271.3132 0072672 260.2849  99.0110 14.12968552995686

Suivez FENGYUN 1C DEB en temps réel avec AllMySat

Download on the App Store